STARLINK-3813, 52482

Orbit data source: Space-Track

STARLINK-3813, 52482 is a payload satellite owned by SpaceX/Seattle (US) in LEO that was launched on Fri, 06 May 2022 UTC via an FALCON 9 launch vehicle from the Air Force Eastern Test Range (AFETR). Payload-class satellites include a variety of spacecraft equipped with specific instruments for various scientific and technological missions. These include communications satellites like Starlink; space stations such as the ISS; scientific satellites like the Hubble; Earth observation satellites from companies like Planet Labs, Umbra, and HawkEye 360; GPS; miniature CubeSats for education and research; and military/defense satellites.

Loading next visibility...
Identifier
52482, 2022-049AH
Orbit
LEO
Country
Flag of USUS
Related business
Manufacturer
SpaceX/Seattle
Mission
Operational Commercial Communications
Bus & Motor
STARLINK, Unknown motor
Mass
297 kg wet, ~220 kg dry
Launch date (UTC)
2022-05-06 (4 years ago)
Launch vehicle
FALCON 9
Launch site
Air Force Eastern Test Range (AFETR)
Object type
Payload
Rocket body
Debris
Shape & HBR
Box + 1 Pan, 10.1 m
Radar Cross Section
13.562 m², Large (>1 m²)

Expand to show TLE details & history
Last TLE update: 18 hours ago

TLE from 18 hours ago
0 STARLINK-3813
1 52482U 22049AH  26235.79484070  .00000421  00000-0  24141-4 0  9998
2 52482  53.1630  13.1817 0001225  86.0422 274.0720 15.33552091237697
Epoch: 2026-08-23T19:04Z
TLE epoch observation values (Epoch: 2026-08-23T19:04:34.236Z)
Latitude
-0.00004°
Longitude
114.95324°
Altitude
466.066 km
Speed
7.635 km/s
True Right ascension
00h 52m 43s
True Declination
0° 00' 00"
Sunlit
Object was in full shadow at epoch
Visualization orbit readout
Latitude
Unknown
Longitude
Unknown
Altitude
Unknown
Speed
Unknown
Apparent Right ascension
Unknown
Apparent Declination
Unknown
Sunlit
N/A
Visualization observer readout
Local Sidereal Time
04:05:58
Azimuth
Unknown
Elevation
Unknown
Doppler factor
Unknown
Orbital elements
Apogee altitude
466.319 km
Perigee altitude
464.643 km
Semi-major axis
6,843.618 km
Eccentricity
0.00012
Inclination
53.163°
RAAN
13.1817°
Arg. of periapsis
86.0422°
True anomaly
274.058°
Mean anomaly
274.072°
Eccentric anomaly
274.065°
Mean motion
3.83367 °/min
Orbital period
93.9 mins
BSTAR
0.000024141
Loading maneuver chart data...
Computing Atmospheric mass density...
Loading historical data...
Loading historical data...
Loading historical data...
Loading historical data...
Loading historical data...
Loading historical data...
Loading historical data...

Documentation

Showing up to 5 results
|